When you browse on this site, cookies collect data to enhance your experience and personalize the content and advertising you see.
Visit our Privacy Policy to learn more. By continuing to use the site, you agree to this use of cookies and data.
  • In France
  • List of Countries
  • For 7 days
  • Water Temperature
  • Weather Map
  • Weather Widgets
  • user-avatar
    Login

    Hourly Weather Wavre

    Today, 16 September, Monday

    Time Temperature Precipitation Wind Pressure Humidity
    00:00 +15°C° 0 mm 1 mps 761 mmHg 83%
    01:00 +15°C° 0 mm 1 mps 760 mmHg 82%
    02:00 +15°C° 0 mm 1 mps 760 mmHg 80%
    03:00 +15°C° 0 mm 1 mps 760 mmHg 79%
    04:00 +15°C° 0 mm 1 mps 760 mmHg 76%
    05:00 +15°C° 0 mm 2 mps 760 mmHg 73%
    06:00 +15°C° 0 mm 2 mps 759 mmHg 71%
    07:00 +17°C° 0 mm 3 mps 759 mmHg 66%
    08:00 +18°C° 0 mm 3 mps 759 mmHg 61%
    09:00 +20°C° 0 mm 4 mps 759 mmHg 56%
    10:00 +21°C° 0 mm 4 mps 759 mmHg 58%
    11:00 +21°C° 0 mm 4 mps 759 mmHg 61%
    12:00 +22°C° 0 mm 4 mps 759 mmHg 63%
    13:00 +21°C° 0 mm 4 mps 759 mmHg 67%
    14:00 +21°C° 0 mm 4 mps 759 mmHg 72%
    15:00 +20°C° 0 mm 4 mps 759 mmHg 76%
    16:00 +19°C° 0 mm 3 mps 759 mmHg 80%
    17:00 +18°C° 0 mm 3 mps 759 mmHg 85%
    18:00 +17°C° 0 mm 2 mps 759 mmHg 89%
    19:00 +16°C° 0 mm 2 mps 759 mmHg 90%
    20:00 +15°C° 0 mm 2 mps 759 mmHg 91%
    21:00 +15°C° 0 mm 2 mps 760 mmHg 92%
    22:00 +15°C° 0 mm 2 mps 760 mmHg 89%
    23:00 +14°C° 0 mm 2 mps 760 mmHg 87%

    Tomorrow, 17 September, Tuesday

    Time Temperature Precipitation Wind Pressure Humidity
    00:00 +14°C° 0 mm 2 mps 760 mmHg 85%
    01:00 +13°C° 0 mm 2 mps 760 mmHg 87%
    02:00 +12°C° 0 mm 1 mps 760 mmHg 88%
    03:00 +11°C° 0 mm 1 mps 760 mmHg 90%
    04:00 +11°C° 0 mm 1 mps 760 mmHg 89%
    05:00 +11°C° 0 mm 1 mps 760 mmHg 89%
    06:00 +11°C° 0 mm 1 mps 760 mmHg 88%
    07:00 +13°C° 0 mm 2 mps 761 mmHg 79%
    08:00 +14°C° 0 mm 3 mps 761 mmHg 70%
    09:00 +17°C° 0 mm 3 mps 761 mmHg 61%
    10:00 +17°C° 0 mm 4 mps 761 mmHg 59%
    11:00 +18°C° 0 mm 4 mps 761 mmHg 57%
    12:00 +17°C° 0 mm 5 mps 761 mmHg 55%
    13:00 +17°C° 0 mm 5 mps 761 mmHg 55%
    14:00 +17°C° 0 mm 5 mps 761 mmHg 56%
    15:00 +16°C° 0 mm 5 mps 761 mmHg 57%
    16:00 +15°C° 0 mm 5 mps 761 mmHg 60%
    17:00 +14°C° 0 mm 4 mps 761 mmHg 62%
    18:00 +12°C° 0 mm 4 mps 762 mmHg 65%
    19:00 +11°C° 0 mm 4 mps 762 mmHg 69%
    20:00 +10°C° 0 mm 3 mps 763 mmHg 73%
    21:00 +9°C° 0 mm 3 mps 763 mmHg 77%
    22:00 +8°C° 0 mm 2 mps 763 mmHg 77%
    23:00 +8°C° 0 mm 2 mps 763 mmHg 78%

    Day after tomorrow, 18 September, Wednesday

    Time Temperature Precipitation Wind Pressure Humidity
    00:00 +7°C° 0 mm 2 mps 764 mmHg 78%
    01:00 +7°C° 0 mm 2 mps 764 mmHg 79%
    02:00 +7°C° 0 mm 2 mps 764 mmHg 81%
    03:00 +7°C° 0 mm 2 mps 764 mmHg 82%
    04:00 +8°C° 0 mm 1 mps 764 mmHg 83%
    05:00 +8°C° 0 mm 1 mps 764 mmHg 84%
    06:00 +8°C° 0 mm 1 mps 764 mmHg 85%
    07:00 +9°C° 0 mm 2 mps 765 mmHg 76%
    08:00 +12°C° 0 mm 2 mps 765 mmHg 67%
    09:00 +14°C° 0 mm 3 mps 765 mmHg 59%
    10:00 +16°C° 0 mm 3 mps 765 mmHg 54%
    11:00 +17°C° 0 mm 3 mps 765 mmHg 50%
    12:00 +18°C° 0 mm 3 mps 764 mmHg 45%
    13:00 +18°C° 0 mm 4 mps 764 mmHg 46%
    14:00 +18°C° 0 mm 4 mps 764 mmHg 46%
    15:00 +18°C° 0 mm 4 mps 764 mmHg 46%
    16:00 +15°C° 0 mm 4 mps 764 mmHg 53%
    17:00 +13°C° 0 mm 3 mps 764 mmHg 60%
    18:00 +11°C° 0 mm 3 mps 764 mmHg 67%
    19:00 +11°C° 0 mm 3 mps 764 mmHg 71%
    20:00 +10°C° 0 mm 3 mps 765 mmHg 75%
    21:00 +9°C° 0 mm 2 mps 766 mmHg 79%
    22:00 +8°C° 0 mm 2 mps 766 mmHg 81%
    23:00 +8°C° 0 mm 2 mps 766 mmHg 82%

    19 September, Thursday

    Time Temperature Precipitation Wind Pressure Humidity
    00:00 +9°C° 0 mm 1 mps 766 mmHg 84%
    01:00 +9°C° 0 mm 1 mps 766 mmHg 84%
    02:00 +8°C° 0 mm 1 mps 765 mmHg 85%
    03:00 +8°C° 0 mm 1 mps 765 mmHg 86%
    04:00 +8°C° 0 mm 0 mps 765 mmHg 84%
    05:00 +8°C° 0 mm 0 mps 766 mmHg 81%
    06:00 +9°C° 0 mm 0 mps 766 mmHg 79%
    07:00 +10°C° 0 mm 0 mps 766 mmHg 74%
    08:00 +13°C° 0 mm 1 mps 766 mmHg 69%
    09:00 +14°C° 0 mm 1 mps 767 mmHg 64%
    10:00 +16°C° 0 mm 1 mps 767 mmHg 61%
    11:00 +17°C° 0 mm 2 mps 766 mmHg 58%
    12:00 +18°C° 0 mm 2 mps 766 mmHg 55%
    13:00 +18°C° 0 mm 3 mps 766 mmHg 55%
    14:00 +18°C° 0 mm 3 mps 766 mmHg 56%
    15:00 +18°C° 0 mm 3 mps 765 mmHg 56%
    16:00 +17°C° 0 mm 3 mps 766 mmHg 62%
    17:00 +15°C° 0 mm 2 mps 766 mmHg 68%
    18:00 +14°C° 0 mm 2 mps 766 mmHg 74%
    19:00 +13°C° 0 mm 2 mps 766 mmHg 77%
    20:00 +12°C° 0 mm 2 mps 766 mmHg 81%
    21:00 +10°C° 0 mm 2 mps 767 mmHg 84%
    22:00 +10°C° 0 mm 2 mps 767 mmHg 84%
    23:00 +9°C° 0 mm 2 mps 767 mmHg 84%

    20 September, Friday

    Time Temperature Precipitation Wind Pressure Humidity
    00:00 +9°C° 0 mm 2 mps 767 mmHg 85%
    01:00 +8°C° 0 mm 2 mps 766 mmHg 86%
    02:00 +8°C° 0 mm 2 mps 766 mmHg 86%
    03:00 +7°C° 0 mm 2 mps 766 mmHg 87%
    04:00 +7°C° 0 mm 2 mps 766 mmHg 87%
    05:00 +7°C° 0 mm 2 mps 766 mmHg 88%
    06:00 +7°C° 0 mm 2 mps 766 mmHg 88%
    07:00 +9°C° 0 mm 3 mps 766 mmHg 77%
    08:00 +12°C° 0 mm 3 mps 766 mmHg 66%
    09:00 +14°C° 0 mm 4 mps 766 mmHg 56%
    10:00 +17°C° 0 mm 4 mps 766 mmHg 50%
    11:00 +18°C° 0 mm 4 mps 765 mmHg 45%
    12:00 +19°C° 0 mm 5 mps 765 mmHg 40%
    13:00 +19°C° 0 mm 5 mps 764 mmHg 39%
    14:00 +20°C° 0 mm 5 mps 764 mmHg 39%
    15:00 +20°C° 0 mm 5 mps 763 mmHg 39%
    16:00 +17°C° 0 mm 5 mps 763 mmHg 43%
    17:00 +15°C° 0 mm 4 mps 763 mmHg 48%
    18:00 +13°C° 0 mm 4 mps 763 mmHg 53%
    19:00 +13°C° 0 mm 4 mps 763 mmHg 56%
    20:00 +12°C° 0 mm 4 mps 763 mmHg 59%
    21:00 +11°C° 0 mm 4 mps 763 mmHg 62%
    22:00 +10°C° 0 mm 4 mps 763 mmHg 62%
    23:00 +10°C° 0 mm 3 mps 763 mmHg 62%

    21 September, Saturday

    Time Temperature Precipitation Wind Pressure Humidity
    00:00 +10°C° 0 mm 3 mps 762 mmHg 62%
    01:00 +9°C° 0 mm 3 mps 762 mmHg 63%
    02:00 +9°C° 0 mm 3 mps 762 mmHg 63%
    03:00 +9°C° 0 mm 3 mps 761 mmHg 64%
    04:00 +8°C° 0 mm 4 mps 761 mmHg 64%
    05:00 +8°C° 0 mm 4 mps 761 mmHg 64%
    06:00 +8°C° 0 mm 4 mps 760 mmHg 64%
    07:00 +12°C° 0 mm 4 mps 760 mmHg 56%
    08:00 +15°C° 0 mm 4 mps 760 mmHg 48%
    09:00 +19°C° 0 mm 5 mps 760 mmHg 40%
    10:00 +20°C° 0 mm 5 mps 760 mmHg 38%
    11:00 +22°C° 0 mm 5 mps 759 mmHg 36%
    12:00 +23°C° 0 mm 5 mps 759 mmHg 34%
    13:00 +25°C° 0 mm 5 mps 758 mmHg 35%
    14:00 +25°C° 0 mm 5 mps 758 mmHg 37%
    15:00 +25°C° 0 mm 5 mps 758 mmHg 39%
    16:00 +22°C° 0 mm 4 mps 758 mmHg 46%
    17:00 +20°C° 0 mm 4 mps 757 mmHg 52%
    18:00 +18°C° 0 mm 3 mps 757 mmHg 58%
    19:00 +18°C° 0 mm 3 mps 758 mmHg 58%
    20:00 +17°C° 0 mm 4 mps 758 mmHg 58%
    21:00 +15°C° 0 mm 4 mps 758 mmHg 59%
    22:00 +15°C° 0 mm 4 mps 758 mmHg 59%
    23:00 +15°C° 0 mm 4 mps 757 mmHg 58%
    Show more